User: anonymous   Login
Location: Estes Par
(40.3770°N, 105.5210°W)
Time: 12:48:28
(UTC-06:00)
Language:

XW-2D - Orbit

View from above orbital plane
View from above orbital plane
View from above satellite
View from above satellite

Ground track
Ground track

The orbit data is extracted from the following two-line orbital elements,

1 40907U 15049J   19084.49880983  .00000489  00000-0  29080-4 0  9994
2 40907  97.4650  87.6771 0015676 126.6220  24.5322 15.15730495194106
Epoch (UTC): 25 March 2019 11:58:17
Eccentricity: 0.0015676
inclination: 97.4650°
perigee height: 508 km
apogee height: 529 km
right ascension of ascending node: 87.6771°
argument of perigee: 126.6220°
revolutions per day: 15.15730495
mean anomaly at epoch: 24.5322°
orbit number at epoch: 19410

The dashed part of the orbit path shows where the satellite is in the earth's shadow,  

DLR